星链-32506 (STARLINK-32506)

导读

STARLINK-32506是美国SpaceX公司星链(Starlink)卫星互联网项目的低轨卫星,于2024年11月30日发射入轨。作为全球规模最大低轨卫星星座的一员,它运行在近地轨道,为全球偏远、无基础设施覆盖区域提供高速低延迟宽带互联网服务,助力填补数字鸿沟,同时也参与星链星座的扩容,支撑全球无缝网络覆盖目标实现。

Basic Information
目录编号:
62167
目录名称:
STARLINK-32506
国际标识:
2024-225E
轨道中心:
EARTH
卫星名称:
星链-32506
卫星全名:
星链-32506 (STARLINK-32506)
卫星状态:
在轨 (已飞行643 天)
发射日期:
2024-11-30 UTC
国别 :
美国 (US)
星等 :
--
Orbit Information
数据来源 国际轨道数据
星历时间: 2026-09-03T19:49:00+0800
23小时前
查看轨道信息
半长轴: 6950.209km
偏心率: 0.0002751
轨道倾角: 70.001°
近地点辐角 268.623°
升交点赤经 76.333°
平近点角 91.461°
近地点: 570.159km
远地点: 573.985km
周期: 96.107分钟
每日圈数: 14.983249
Detailed Information
固有亮度:
5
最大亮度:
2.5
卫星平台:
Starlink V1.0
覆盖范围:
全球
运营商:
太空探索技术公司
运营商所在国:
美国
制造商(研发单位):
太空探索技术公司
制造商所在国:
美国
使用方式:
暂无
Satellite Introduction
Starlink 计划是 SpaceX 推出的全球卫星互联网项目,通过发射低轨道卫星,为全球尤其是偏远地区提供高速、低延迟的互联网服务。自 2019 年起,Starlink 已部署数千颗卫星,旨在缩小全球数字鸿沟,推动互联网普及。该项目还为军事、航空等行业提供通信支持,带来广泛经济效益。
2D Orbit Map
3D Orbit Map
Orbit Altitude Analysis Chart
Orbit Inclination Analysis Chart
Orbit Comprehensive Analysis Chart
View Comprehensive Chart
Conjunction Data List
Event ID Objects TCA Miss Dist (km) Collision Risk Probability Collision Risk Index (CRI) Action
CDM_260906-042205-551906-216721
2026-09-06T
04:22:12+0000
1.020 km
极远距离
1.852005E-5 中风险 0.6
CDM_260905-071404-452006-216722
KX-09 (44520)
2026-09-05T
07:14:44+0000
1.705 km
极远距离
4.514407E-6 低风险 0.48
CDM_260830-141506-216706-976821
2026-08-30T
14:15:53+0000
1.941 km
极远距离
2.68609E-6 低风险 0.44
CDM_260905-002604-284306-216723
OBJECT U (42843)
2026-09-05T
00:26:33+0000
1.764 km
极远距离
2.086014E-6 低风险 0.41
CDM_260827-231004-487906-216722
OBJECT A (44879)
2026-08-27T
23:10:03+0000
2.522 km
极远距离
1.651838E-6 低风险 0.39